Погода Им. Полины Осипенко

Погода Им. Полины Осипенко : погода сейчас, прогноз погоды и архив. Всё, что Вы хотите узнать о погоде Им. Полины Осипенко!

Хотите узнать прогноз погоды Им. Полины Осипенко? Тогда Вам сюда: Погода Им. Полины Осипенко

Поиск расширенной информации на нашем сайте:

Другие новости

Новости СМИ2

Главная страница сайта

Новости сайта

03.07.2017

Напоминаем, что на нашем специализированном сайте Метеоцентр.Азия вы можете получить высокодетализированные автоматические прогнозы погоды по пунктам России, СНГ и мира в авиационном формате (включающие направление и скорость ветра, видимость, явления погоды, количество и форму облачности, нижнюю и верхнюю границу облачности).


Погода Им. Полины Осипенко - сегодня

Время (UTC), дата Ветер
(°,м/с) 
Видим.   Явления Облачность Т
(°С)
Тd
(°С)
f(%) Тe
(°С)
Pmin
(гПа)
dP
(гПа)
Po
(мм)
O2
(г/м3)
Тmin Tmax R s Состояние
почвы
15 18.02.18 тихо ()   20000 м    ясно 
-25.9 -28.4 79 -26  1015.3  -0.7  754  337           
18 18.02.18 тихо ()   20000 м    ясно 
-27 -30 76 -27  1015.1  -0.3  754  339           
03 19.02.18 120 (ЮВ) 20000 м    10/0 верхняя 
[Ci fib]
-17 -23.9 55 -17  1012.3  -1.5  752  325           
06 19.02.18 тихо ()   20000 м    10/0 верхняя 
[Ci fib]
-14.2 -23.1 47 -14  1010.7  -1.4  751  321           
12 19.02.18 тихо ()   20000 м    8/0 средняя, верхняя 
[As op|Ci fib]
-21.5 -24.2 79 -22  1011.5  0.1  751  330           
15 19.02.18 080 (В) 20000 м    3/0 верхняя 
[Ci fib]
-24.1 -26.7 79 -25  1011  -0.6  751  334           
18 19.02.18 350 (С) 20000 м    8/0 верхняя 
[Ci fib]
-26.1 -29.3 74 -27  1010.8  -0.3  750  336           
21 19.02.18 320 (СЗ) 20000 м  слаб. снег  10/0 средняя, верхняя 
[As op|Cs]
-26.2 -29.4 74 -27  1010.4  -0.3  750  336  -26.2    0.0  равномерный
сухой снег
100% 
03 20.02.18 360 (С) 20000 м  {снег}  4/1 1000 м верхняя 
[Cu hum|Ci fib]
-14.7 -24 45 -15  1009.5  -0.7  750  321           
06 20.02.18 110 (В) 20000 м  {снег}  6/1 1000 м верхняя 
[Cu hum|Ci fib]
-13.5 -23.6 42 -13  1008.7  -0.7  749  319           
12 20.02.18 тихо ()   20000 м    10/0 средняя, верхняя 
[As op|Ci fib]
-22.5 -25.9 74 -23  1011.1  0.9  751  331           
15 20.02.18 070 (В) 20000 м    6/0 верхняя 
[Ci fib]
-24.6 -27.5 77 -25  1011  -0.2  751  334           
18 20.02.18 050 (СВ) 20000 м    6/0 верхняя 
[Ci fib]
-28 -31.1 75 -29  1011.4  0.3  751  339           
03 21.02.18 120 (ЮВ) 20000 м    8/0 верхняя 
[Cu hum|Ci fib]
-17 -25.8 46 -17  1011.3  -0.4  751  324           
06 21.02.18 150 (ЮВ) 20000 м    10/0 верхняя 
[Cu hum|Ci fib]
-13.8 -25.8 36 -16  1010.6  -0.6  751  320           
12 21.02.18 050 (СВ) 20000 м    3/0 верхняя 
[Ci fib]
-24 -28.2 68 -24  1013.7  1.4  753  334           
15 21.02.18 тихо ()   20000 м    5/0 верхняя 
[Ci fib]
-26.8 -30.8 69 -27  1014.1  0.3  753  338           
18 21.02.18 тихо ()   20000 м    3/0 верхняя 
[Ci fib]
-31.4 -34.6 73 -31  1014.7  0.4  753  345           
03 22.02.18 100 (В) 20000 м    1/0 верхняя 
[Ci fib]
-16.2 -27.1 38 -16  1015.9  -0.3  755  325           
06 22.02.18 110 (В) 20000 м    3/1 1000 м верхняя 
[Cu hum|Ci fib]
-14.6 -25.5 39 -15  1015.2  -0.7  754  323           
09 22.02.18 тихо ()   20000 м    3/0 верхняя 
[Ci fib]
-19.8 -25.8 59 -20  1016.8  1.5  755  330    -13.7       
12 22.02.18 тихо ()   20000 м    ясно 
-25.4 -27.9 80 -25  1018.7  1.6  756  338           
15 22.02.18 тихо ()   20000 м    ясно 
-30.1 -33.6 71 -30  1019.8  0.9  757  345           
18 22.02.18 270 (З) 20000 м    ясно 
-32.3 -36.2 68 -33  1020.7  0.7  758  348           
00 23.02.18 310 (СЗ) 20000 м    ясно 
-26 -30.1 68 -27  1023.3  1.6  760  340  -34.6         
Время (UTC), дата Ветер
(°,м/с) 
Видим.   Явления Облачность Т
(°С)
Тd
(°С)
f(%) Тe
(°С)
Pmin
(гПа)
dP
(гПа)
Po
(мм)
O2
(г/м3)
Тmin Tmax R s Состояние
почвы

Для получения пояснительной информации подведите курсор к названию столбца.

ПОГОДА Им. Полины Осипенко - архив

Всё, что Вы хотите узнать о погоде Им. Полины Осипенко - удобно и подробно!

Выберите нужную дату (начиная с 1 января 2015* года) и нажмите кнопку "Найти".
Будут отображены архивные сводки погоды по пункту Им. Полины Осипенко, начиная с указанной даты.


Отображать данные в формате CSV (для использования в таблицах Excel)


Внимание! Наш архив погоды предназначен исключительно для личного некоммерческого использования в познавательных целях. Если Вам необходимы официальные справки о состоянии погоды (для производственных, юридических, коммерческих и т.п. целей), обращайтесь в органы Росгидромета.

*Примечание: данная дата относится к архиву по метеостанциям СССР (Россия, СНГ, Балтия).
Архив по метеостанциям Зарубежной Европы и Азии (кроме Китая) хранится 10 дней, по другим регионам земного шара (Китай, Африка, Америка, Австралия, Океания) - 1 день.

Им. Полины Осипенко - район местоположения метеостанции


Название, широта, долгота, высота метеостанции:
Им. Полины Осипенко 52.4°ш. 136.5°д. 73 м над ур. моря [Российская Федерация]

Дополнительная информация

В oтличие oт бoльшинства пoгoдных сайтoв мы публикуем пoдрoбную метеoинфoрмацию в детальнoм прoфессиoнальнoм фoрмате.

Характеристики температуры и влажнoсти вoздуха измеряются на высoте 2 м в тени вдали oт зданий и деревьев.
Скoрoсть ветра измеряется на высoте 10 м (на урoвне рoста челoвека скoрoсть ветра ниже в 1.5-2 раза). Если метеoстанция нахoдится в гoрoде или в лесу, тo скoрoсть ветра занижена на 2-4 м/с пo сравнению с oткрытым местoм. Скoрoсть ветра над акватoриями крупных рек и oзёр, а также на вершинах хoлмoв на 2-5 м/с выше, чем в oбычных услoвиях.
Атмoсфернoе давление в разных тoчках местнoсти мoжет значительнo oтличаться oт давления на метеoстанции, в зависимoсти oт услoвий рельефа (при пoдъёме на 10 м давление пoнижается примернo на 1 мм рт.ст.).